Location: Callanans Corners
(42.5326°N, 73.8846°W)
Time: 20:34:40
(UTC+00:00)

YAOGAN 1 - Visible Passes

Search period start: 30 March 2023 00:00
Search period end: 09 April 2023 00:00
Orbit: 616 x 618 km, 97.8° (Epoch: 29 March)

Date Brightness Start Highest point End Pass type
(mag) Time Alt. Az. Time Alt. Az. Time Alt. Az.
30 Mar 5.5 00:55:22 10° SW 00:58:03 16° W 01:00:45 10° NW visible
31 Mar 5.8 01:13:33 10° WSW 01:14:30 11° W 01:15:26 10° WNW visible
31 Mar 2.8 23:49:56 10° S 23:54:14 78° WSW 23:58:34 10° NNW visible
02 Apr 3.5 00:06:19 10° S 00:10:31 51° W 00:14:44 10° NNW visible
03 Apr 4.4 00:22:55 10° SSW 00:26:50 34° W 00:30:46 10° NNW visible
04 Apr 5.0 00:39:45 10° SSW 00:43:11 23° W 00:46:37 10° NW visible
05 Apr 5.5 00:56:58 10° SW 00:59:34 16° W 01:02:10 10° NW visible
06 Apr 5.9 01:15:32 10° W 01:15:59 10° W 01:16:25 10° W visible
06 Apr 2.8 23:51:23 10° S 23:55:41 75° WSW 00:00:01 10° NNW visible
08 Apr 3.6 00:07:47 10° S 00:11:56 49° W 00:16:09 10° NNW visible
